PIMOHWEATHER Station Historical Data
Daily Summary for January 04, 2020 Units:  Metric    English   Both
Daily Weekly Monthly Yearly
  High: Low: Average:
Temperature: 32.0 °C 22.0 °C 27 °C
Dew Point: 23.0 °C 20.0 °C 21.9 °C
Humidity: 87% 60% 75%
Wind Speed: 30km/h 0km/h 12.7km/h
Wind Gust: 36km/h - -
Wind- - SSE
Pressure: 1014.6 hPa 1009.8 hPa -
Precipitation: 0.00 mm    
 
 
Tabular Data for January 04, 2020
Time Temperature Dew Point Pressure Wind Wind Speed Wind Gust Humidity Rainfall Rate (Hourly) solar
00:04 25.0 °C 21.0 °C 1014.0 hPa NW 5 km/h 8 km/h 79% 0.00 mm 0.00 W/m2
00:09 25.0 °C 21.0 °C 1014.0 hPa NW 4 km/h 4 km/h 79% 0.00 mm 0.00 W/m2
00:14 25.0 °C 21.0 °C 1014.0 hPa NW 6 km/h 8 km/h 80% 0.00 mm 0.00 W/m2
00:19 25.0 °C 21.0 °C 1014.0 hPa Calm   4 km/h 80% 0.00 mm 0.00 W/m2
00:24 25.0 °C 21.0 °C 1014.0 hPa NW 4 km/h 4 km/h 80% 0.00 mm 0.00 W/m2
00:29 25.0 °C 21.0 °C 1013.9 hPa NNW 4 km/h 4 km/h 80% 0.00 mm 0.00 W/m2
00:34 25.0 °C 21.0 °C 1013.7 hPa NW 5 km/h 8 km/h 80% 0.00 mm 0.00 W/m2
00:39 25.0 °C 21.0 °C 1013.7 hPa NW 6 km/h 8 km/h 80% 0.00 mm 0.00 W/m2
00:44 25.0 °C 21.0 °C 1013.7 hPa NW 5 km/h 8 km/h 81% 0.00 mm 0.00 W/m2
00:49 25.0 °C 21.0 °C 1013.7 hPa NW 9 km/h 12 km/h 81% 0.00 mm 0.00 W/m2
00:54 24.0 °C 21.0 °C 1013.3 hPa NW 14 km/h 16 km/h 81% 0.00 mm 0.00 W/m2
00:59 24.0 °C 21.0 °C 1013.3 hPa NW 12 km/h 16 km/h 82% 0.00 mm 0.00 W/m2
01:04 24.0 °C 21.0 °C 1013.6 hPa NW 10 km/h 12 km/h 82% 0.00 mm 0.00 W/m2
01:09 24.0 °C 21.0 °C 1013.3 hPa NW 9 km/h 12 km/h 82% 0.00 mm 0.00 W/m2
01:14 24.0 °C 21.0 °C 1013.3 hPa NNW 9 km/h 16 km/h 83% 0.00 mm 0.00 W/m2
01:19 24.0 °C 21.0 °C 1013.3 hPa NNW 8 km/h 12 km/h 83% 0.00 mm 0.00 W/m2
01:24 24.0 °C 21.0 °C 1013.3 hPa NNW 7 km/h 12 km/h 83% 0.00 mm 0.00 W/m2
01:29 24.0 °C 21.0 °C 1013.4 hPa NNW 8 km/h 12 km/h 83% 0.00 mm 0.00 W/m2
01:34 24.0 °C 21.0 °C 1013.4 hPa NNW 8 km/h 12 km/h 83% 0.00 mm 0.00 W/m2
01:39 24.0 °C 21.0 °C 1013.4 hPa North 8 km/h 12 km/h 83% 0.00 mm 0.00 W/m2
01:44 24.0 °C 21.0 °C 1013.4 hPa NNE 8 km/h 8 km/h 84% 0.00 mm 0.00 W/m2
01:49 24.0 °C 21.0 °C 1013.4 hPa North 6 km/h 12 km/h 84% 0.00 mm 0.00 W/m2
01:54 24.0 °C 21.0 °C 1013.4 hPa North 6 km/h 12 km/h 84% 0.00 mm 0.00 W/m2
01:59 24.0 °C 21.0 °C 1013.0 hPa North 6 km/h 8 km/h 84% 0.00 mm 0.00 W/m2
02:04 24.0 °C 21.0 °C 1013.0 hPa NNW 5 km/h 8 km/h 84% 0.00 mm 0.00 W/m2
02:09 24.0 °C 21.0 °C 1013.0 hPa NNW 7 km/h 8 km/h 84% 0.00 mm 0.00 W/m2
02:14 24.0 °C 21.0 °C 1012.7 hPa NW 9 km/h 12 km/h 84% 0.00 mm 0.00 W/m2
02:19 24.0 °C 21.0 °C 1012.7 hPa NW 8 km/h 12 km/h 84% 0.00 mm 0.00 W/m2
02:24 24.0 °C 21.0 °C 1012.7 hPa NNW 5 km/h 8 km/h 84% 0.00 mm 0.00 W/m2
02:29 23.0 °C 21.0 °C 1012.7 hPa NNW 8 km/h 12 km/h 84% 0.00 mm 0.00 W/m2
02:34 23.0 °C 21.0 °C 1012.7 hPa North 10 km/h 12 km/h 84% 0.00 mm 0.00 W/m2
02:39 23.0 °C 21.0 °C 1012.7 hPa NNW 12 km/h 16 km/h 84% 0.00 mm 0.00 W/m2
02:44 23.0 °C 21.0 °C 1012.7 hPa North 10 km/h 12 km/h 84% 0.00 mm 0.00 W/m2
02:49 23.0 °C 21.0 °C 1012.6 hPa NNW 13 km/h 16 km/h 84% 0.00 mm 0.00 W/m2
02:54 23.0 °C 21.0 °C 1012.7 hPa NNW 12 km/h 16 km/h 84% 0.00 mm 0.00 W/m2
02:59 23.0 °C 20.0 °C 1012.6 hPa NNW 12 km/h 12 km/h 84% 0.00 mm 0.00 W/m2
03:04 23.0 °C 20.0 °C 1012.4 hPa North 15 km/h 20 km/h 84% 0.00 mm 0.00 W/m2
03:09 23.0 °C 20.0 °C 1012.6 hPa North 10 km/h 12 km/h 84% 0.00 mm 0.00 W/m2
03:14 23.0 °C 20.0 °C 1012.6 hPa NNW 13 km/h 16 km/h 84% 0.00 mm 0.00 W/m2
03:19 23.0 °C 20.0 °C 1012.7 hPa NNW 10 km/h 16 km/h 84% 0.00 mm 0.00 W/m2
03:24 23.0 °C 20.0 °C 1012.7 hPa NNW 10 km/h 12 km/h 84% 0.00 mm 0.00 W/m2
03:29 23.0 °C 20.0 °C 1012.7 hPa North 9 km/h 12 km/h 84% 0.00 mm 0.00 W/m2
03:34 23.0 °C 21.0 °C 1012.7 hPa North 5 km/h 8 km/h 84% 0.00 mm 0.00 W/m2
03:39 23.0 °C 21.0 °C 1012.7 hPa North 15 km/h 16 km/h 84% 0.00 mm 0.00 W/m2
03:44 23.0 °C 20.0 °C 1012.7 hPa NNW 13 km/h 16 km/h 84% 0.00 mm 0.00 W/m2
03:49 23.0 °C 21.0 °C 1012.7 hPa NW 14 km/h 16 km/h 85% 0.00 mm 0.00 W/m2
03:54 23.0 °C 21.0 °C 1012.6 hPa NNW 12 km/h 16 km/h 85% 0.00 mm 0.00 W/m2
03:59 23.0 °C 21.0 °C 1012.7 hPa North 10 km/h 12 km/h 85% 0.00 mm 0.00 W/m2
04:04 23.0 °C 21.0 °C 1012.4 hPa North 12 km/h 16 km/h 85% 0.00 mm 0.00 W/m2
04:09 23.0 °C 20.0 °C 1012.7 hPa NNW 13 km/h 16 km/h 85% 0.00 mm 0.00 W/m2
04:14 23.0 °C 20.0 °C 1012.4 hPa NNW 11 km/h 16 km/h 85% 0.00 mm 0.00 W/m2
04:19 23.0 °C 20.0 °C 1012.6 hPa North 12 km/h 12 km/h 85% 0.00 mm 0.00 W/m2
04:24 23.0 °C 20.0 °C 1012.6 hPa NNW 7 km/h 8 km/h 85% 0.00 mm 0.00 W/m2
04:29 23.0 °C 20.0 °C 1012.7 hPa NNW 13 km/h 16 km/h 85% 0.00 mm 0.00 W/m2
04:34 23.0 °C 20.0 °C 1012.7 hPa North 10 km/h 12 km/h 85% 0.00 mm 0.00 W/m2
04:39 23.0 °C 20.0 °C 1012.7 hPa North 13 km/h 16 km/h 86% 0.00 mm 0.00 W/m2
04:44 23.0 °C 20.0 °C 1012.7 hPa North 12 km/h 16 km/h 86% 0.00 mm 0.00 W/m2
04:49 23.0 °C 20.0 °C 1012.7 hPa North 11 km/h 12 km/h 86% 0.00 mm 0.00 W/m2
04:54 23.0 °C 20.0 °C 1012.7 hPa NNW 8 km/h 12 km/h 86% 0.00 mm 0.00 W/m2
04:59 23.0 °C 20.0 °C 1012.7 hPa North 7 km/h 8 km/h 86% 0.00 mm 0.00 W/m2
05:04 23.0 °C 20.0 °C 1012.7 hPa NW 8 km/h 8 km/h 86% 0.00 mm 0.00 W/m2
05:09 23.0 °C 20.0 °C 1012.9 hPa NW 13 km/h 16 km/h 86% 0.00 mm 0.00 W/m2
05:14 23.0 °C 20.0 °C 1012.9 hPa NNW 14 km/h 16 km/h 86% 0.00 mm 0.00 W/m2
05:19 23.0 °C 20.0 °C 1013.0 hPa North 14 km/h 20 km/h 86% 0.00 mm 0.00 W/m2
05:24 23.0 °C 20.0 °C 1012.7 hPa NNW 13 km/h 16 km/h 87% 0.00 mm 0.00 W/m2
05:29 22.0 °C 20.0 °C 1012.7 hPa North 11 km/h 16 km/h 86% 0.00 mm 0.00 W/m2
05:34 22.0 °C 20.0 °C 1012.9 hPa North 13 km/h 16 km/h 86% 0.00 mm 0.00 W/m2
05:39 22.0 °C 20.0 °C 1013.0 hPa North 10 km/h 12 km/h 86% 0.00 mm 0.00 W/m2
05:44 22.0 °C 20.0 °C 1013.0 hPa North 13 km/h 16 km/h 86% 0.00 mm 0.00 W/m2
05:49 22.0 °C 20.0 °C 1013.0 hPa North 10 km/h 16 km/h 86% 0.00 mm 0.00 W/m2
05:54 22.0 °C 20.0 °C 1013.0 hPa North 10 km/h 12 km/h 86% 0.00 mm 0.00 W/m2
05:59 22.0 °C 20.0 °C 1013.0 hPa NNW 10 km/h 12 km/h 86% 0.00 mm 0.00 W/m2
06:04 22.0 °C 20.0 °C 1013.0 hPa NNW 9 km/h 12 km/h 87% 0.00 mm 0.00 W/m2
06:09 22.0 °C 20.0 °C 1013.4 hPa North 8 km/h 12 km/h 87% 0.00 mm 0.00 W/m2
06:14 22.0 °C 20.0 °C 1013.4 hPa NNW 8 km/h 8 km/h 86% 0.00 mm 0.00 W/m2
06:19 22.0 °C 20.0 °C 1013.7 hPa NNW 8 km/h 12 km/h 86% 0.00 mm 0.04 W/m2
06:24 22.0 °C 20.0 °C 1013.4 hPa North 5 km/h 8 km/h 86% 0.00 mm 2.74 W/m2
06:29 22.0 °C 20.0 °C 1013.7 hPa North 9 km/h 12 km/h 86% 0.00 mm 5.91 W/m2
06:34 22.0 °C 20.0 °C 1013.7 hPa North 10 km/h 12 km/h 86% 0.00 mm 9.95 W/m2
06:39 22.0 °C 20.0 °C 1013.7 hPa NNW 8 km/h 12 km/h 86% 0.00 mm 16.22 W/m2
06:44 22.0 °C 20.0 °C 1013.7 hPa NNW 7 km/h 12 km/h 86% 0.00 mm 20.69 W/m2
06:49 22.0 °C 20.0 °C 1014.0 hPa NNW 9 km/h 12 km/h 86% 0.00 mm 24.78 W/m2
06:54 22.0 °C 20.0 °C 1013.9 hPa North 6 km/h 12 km/h 85% 0.00 mm 29.25 W/m2
06:59 23.0 °C 20.0 °C 1014.0 hPa NW 10 km/h 12 km/h 85% 0.00 mm 31.76 W/m2
07:04 23.0 °C 20.0 °C 1013.9 hPa NNW 10 km/h 12 km/h 85% 0.00 mm 34.74 W/m2
07:09 23.0 °C 20.0 °C 1014.0 hPa NW 15 km/h 16 km/h 85% 0.00 mm 38.04 W/m2
07:14 23.0 °C 20.0 °C 1013.7 hPa NNW 10 km/h 12 km/h 85% 0.00 mm 41.22 W/m2
07:19 23.0 °C 20.0 °C 1014.1 hPa North 14 km/h 16 km/h 84% 0.00 mm 43.88 W/m2
07:24 23.0 °C 20.0 °C 1014.1 hPa NNW 15 km/h 20 km/h 83% 0.00 mm 46.77 W/m2
07:29 24.0 °C 20.0 °C 1014.3 hPa NNW 12 km/h 16 km/h 82% 0.00 mm 49.25 W/m2
07:34 24.0 °C 20.0 °C 1014.2 hPa NNW 14 km/h 16 km/h 82% 0.00 mm 51.12 W/m2
07:39 24.0 °C 20.0 °C 1014.4 hPa NNW 10 km/h 12 km/h 81% 0.00 mm 53.52 W/m2
07:44 24.0 °C 20.0 °C 1014.4 hPa NNW 10 km/h 12 km/h 80% 0.00 mm 55.97 W/m2
07:49 24.0 °C 21.0 °C 1014.4 hPa North 16 km/h 20 km/h 79% 0.00 mm 57.11 W/m2
07:54 24.0 °C 21.0 °C 1014.4 hPa NNW 10 km/h 16 km/h 79% 0.00 mm 59.59 W/m2
07:59 25.0 °C 20.0 °C 1014.4 hPa North 15 km/h 16 km/h 78% 0.00 mm 63.59 W/m2
08:04 25.0 °C 21.0 °C 1014.4 hPa North 14 km/h 16 km/h 78% 0.00 mm 69.43 W/m2
08:09 25.0 °C 21.0 °C 1014.4 hPa North 13 km/h 16 km/h 77% 0.00 mm 76.44 W/m2
08:14 25.0 °C 21.0 °C 1014.4 hPa NNW 12 km/h 16 km/h 76% 0.00 mm 84.06 W/m2
08:19 26.0 °C 21.0 °C 1014.4 hPa NNW 14 km/h 16 km/h 76% 0.00 mm 91.21 W/m2
08:24 26.0 °C 21.0 °C 1014.4 hPa North 14 km/h 16 km/h 75% 0.00 mm 99.06 W/m2
08:29 26.0 °C 21.0 °C 1014.4 hPa NNW 12 km/h 16 km/h 74% 0.00 mm 108.26 W/m2
08:34 26.0 °C 21.0 °C 1014.4 hPa NW 14 km/h 20 km/h 73% 0.00 mm 114.87 W/m2
08:39 27.0 °C 21.0 °C 1014.6 hPa North 10 km/h 12 km/h 73% 0.00 mm 125.88 W/m2
08:44 27.0 °C 21.0 °C 1014.4 hPa North 13 km/h 16 km/h 72% 0.00 mm 131.41 W/m2
08:49 27.0 °C 21.0 °C 1014.4 hPa North 19 km/h 20 km/h 72% 0.00 mm 141.76 W/m2
08:54 27.0 °C 21.0 °C 1014.3 hPa North 14 km/h 16 km/h 72% 0.00 mm 148.73 W/m2
08:59 27.0 °C 21.0 °C 1014.3 hPa NNW 15 km/h 16 km/h 71% 0.00 mm 160.84 W/m2
09:04 28.0 °C 22.0 °C 1014.3 hPa NNW 13 km/h 16 km/h 71% 0.00 mm 169.24 W/m2
09:09 28.0 °C 22.0 °C 1014.3 hPa North 17 km/h 20 km/h 70% 0.00 mm 180.32 W/m2
09:14 28.0 °C 22.0 °C 1014.3 hPa North 17 km/h 20 km/h 70% 0.00 mm 186.85 W/m2
09:19 28.0 °C 22.0 °C 1014.3 hPa North 14 km/h 16 km/h 69% 0.00 mm 194.83 W/m2
09:24 29.0 °C 22.0 °C 1014.3 hPa NNW 14 km/h 16 km/h 68% 0.00 mm 211.05 W/m2
09:29 29.0 °C 22.0 °C 1014.3 hPa NNE 13 km/h 16 km/h 67% 0.00 mm 218.51 W/m2
09:34 29.0 °C 22.0 °C 1014.3 hPa NNE 11 km/h 12 km/h 67% 0.00 mm 224.87 W/m2
09:39 29.0 °C 22.0 °C 1014.1 hPa North 14 km/h 16 km/h 65% 0.00 mm 228.47 W/m2
09:44 30.0 °C 22.0 °C 1014.2 hPa North 15 km/h 16 km/h 65% 0.00 mm 250.47 W/m2
09:49 31.0 °C 22.0 °C 1014.3 hPa NNE 7 km/h 8 km/h 63% 0.00 mm 256.95 W/m2
09:54 31.0 °C 22.0 °C 1014.0 hPa East 10 km/h 12 km/h 61% 0.00 mm 266.84 W/m2
09:59 31.0 °C 22.0 °C 1014.0 hPa NE 9 km/h 12 km/h 62% 0.00 mm 281.47 W/m2
10:04 31.0 °C 22.0 °C 1014.0 hPa NNE 11 km/h 12 km/h 62% 0.00 mm 308.16 W/m2
10:09 31.0 °C 23.0 °C 1014.0 hPa NE 9 km/h 12 km/h 60% 0.00 mm 338.60 W/m2
10:14 32.0 °C 23.0 °C 1013.9 hPa NNE 10 km/h 12 km/h 61% 0.00 mm 421.10 W/m2
10:19 32.0 °C 23.0 °C 1013.9 hPa SSE 9 km/h 12 km/h 61% 0.00 mm 314.32 W/m2
10:24 31.0 °C 23.0 °C 1013.9 hPa SSE 8 km/h 12 km/h 61% 0.00 mm 223.57 W/m2
10:29 31.0 °C 23.0 °C 1013.9 hPa ESE 4 km/h 8 km/h 62% 0.00 mm 413.71 W/m2
10:34 31.0 °C 23.0 °C 1013.9 hPa East 8 km/h 12 km/h 61% 0.00 mm 496.93 W/m2
10:39 31.0 °C 23.0 °C 1013.8 hPa NE 15 km/h 20 km/h 63% 0.00 mm 199.94 W/m2
10:44 31.0 °C 23.0 °C 1013.6 hPa ENE 9 km/h 16 km/h 64% 0.00 mm 205.96 W/m2
10:49 31.0 °C 23.0 °C 1013.6 hPa East 8 km/h 20 km/h 63% 0.00 mm 271.04 W/m2
10:54 31.0 °C 23.0 °C 1013.6 hPa NNE 9 km/h 16 km/h 63% 0.00 mm 413.00 W/m2
10:59 31.0 °C 23.0 °C 1013.4 hPa NE 15 km/h 20 km/h 63% 0.00 mm 276.60 W/m2
11:04 31.0 °C 23.0 °C 1013.2 hPa NNE 18 km/h 20 km/h 65% 0.00 mm 207.91 W/m2
11:09 30.0 °C 23.0 °C 1013.2 hPa North 21 km/h 24 km/h 65% 0.00 mm 455.06 W/m2
11:14 30.0 °C 23.0 °C 1013.2 hPa North 18 km/h 24 km/h 66% 0.00 mm 150.46 W/m2
11:19 30.0 °C 23.0 °C 1012.9 hPa NNE 14 km/h 16 km/h 66% 0.00 mm 353.91 W/m2
11:24 31.0 °C 23.0 °C 1012.9 hPa NNE 16 km/h 20 km/h 65% 0.00 mm 465.09 W/m2
11:29 31.0 °C 23.0 °C 1012.9 hPa North 22 km/h 28 km/h 65% 0.00 mm 474.07 W/m2
11:34 30.0 °C 23.0 °C 1012.9 hPa North 18 km/h 28 km/h 65% 0.00 mm 495.70 W/m2
11:39 31.0 °C 23.0 °C 1012.8 hPa NNE 19 km/h 24 km/h 65% 0.00 mm 477.23 W/m2
11:44 31.0 °C 23.0 °C 1012.6 hPa North 19 km/h 24 km/h 65% 0.00 mm 445.04 W/m2
11:49 31.0 °C 23.0 °C 1012.6 hPa North 19 km/h 24 km/h 64% 0.00 mm 476.86 W/m2
11:54 31.0 °C 23.0 °C 1012.6 hPa North 22 km/h 24 km/h 64% 0.00 mm 495.46 W/m2
11:59 31.0 °C 23.0 °C 1012.6 hPa NNW 16 km/h 24 km/h 65% 0.00 mm 509.16 W/m2
12:04 32.0 °C 23.0 °C 1012.5 hPa NNW 23 km/h 28 km/h 63% 0.00 mm 493.39 W/m2
12:09 31.0 °C 23.0 °C 1012.2 hPa NNE 23 km/h 28 km/h 62% 0.00 mm 463.01 W/m2
12:14 31.0 °C 23.0 °C 1012.2 hPa NNE 21 km/h 28 km/h 63% 0.00 mm 451.39 W/m2
12:19 32.0 °C 23.0 °C 1011.9 hPa NNE 18 km/h 20 km/h 62% 0.00 mm 477.25 W/m2
12:24 31.0 °C 23.0 °C 1011.8 hPa NNW 19 km/h 24 km/h 63% 0.00 mm 186.22 W/m2
12:29 31.0 °C 23.0 °C 1011.6 hPa NNW 16 km/h 20 km/h 64% 0.00 mm 184.72 W/m2
12:34 31.0 °C 23.0 °C 1011.6 hPa North 19 km/h 24 km/h 64% 0.00 mm 274.71 W/m2
12:39 31.0 °C 23.0 °C 1011.6 hPa NNE 13 km/h 16 km/h 63% 0.00 mm 507.52 W/m2
12:44 31.0 °C 23.0 °C 1011.6 hPa North 20 km/h 24 km/h 63% 0.00 mm 511.80 W/m2
12:49 31.0 °C 23.0 °C 1011.4 hPa North 21 km/h 24 km/h 63% 0.00 mm 290.32 W/m2
12:54 31.0 °C 23.0 °C 1011.6 hPa North 12 km/h 20 km/h 63% 0.00 mm 176.34 W/m2
12:59 31.0 °C 23.0 °C 1011.2 hPa North 12 km/h 16 km/h 63% 0.00 mm 458.76 W/m2
13:04 31.0 °C 23.0 °C 1011.1 hPa North 24 km/h 28 km/h 63% 0.00 mm 463.16 W/m2
13:09 31.0 °C 23.0 °C 1010.9 hPa NNW 20 km/h 24 km/h 64% 0.00 mm 484.96 W/m2
13:14 31.0 °C 23.0 °C 1010.9 hPa North 21 km/h 24 km/h 63% 0.00 mm 185.84 W/m2
13:19 31.0 °C 23.0 °C 1011.1 hPa NNE 14 km/h 16 km/h 63% 0.00 mm 145.80 W/m2
13:24 31.0 °C 23.0 °C 1010.9 hPa North 14 km/h 16 km/h 62% 0.00 mm 469.52 W/m2
13:29 31.0 °C 23.0 °C 1010.9 hPa North 17 km/h 20 km/h 62% 0.00 mm 429.32 W/m2
13:34 31.0 °C 23.0 °C 1010.9 hPa NNE 14 km/h 20 km/h 62% 0.00 mm 499.13 W/m2
13:39 32.0 °C 23.0 °C 1010.9 hPa NNE 25 km/h 32 km/h 61% 0.00 mm 524.70 W/m2
13:44 31.0 °C 23.0 °C 1010.9 hPa North 19 km/h 32 km/h 62% 0.00 mm 501.11 W/m2
13:49 31.0 °C 23.0 °C 1010.9 hPa NNE 17 km/h 24 km/h 62% 0.00 mm 276.30 W/m2
13:54 31.0 °C 23.0 °C 1010.8 hPa NE 13 km/h 24 km/h 61% 0.00 mm 190.27 W/m2
13:59 31.0 °C 23.0 °C 1010.5 hPa NNE 19 km/h 28 km/h 62% 0.00 mm 215.94 W/m2
14:04 31.0 °C 23.0 °C 1010.5 hPa NNE 17 km/h 28 km/h 62% 0.00 mm 192.75 W/m2
14:09 31.0 °C 23.0 °C 1010.4 hPa NNE 22 km/h 28 km/h 62% 0.00 mm 166.91 W/m2
14:14 31.0 °C 23.0 °C 1010.2 hPa NNE 24 km/h 32 km/h 62% 0.00 mm 152.59 W/m2
14:19 31.0 °C 23.0 °C 1010.2 hPa NNE 21 km/h 32 km/h 62% 0.00 mm 136.72 W/m2
14:24 31.0 °C 23.0 °C 1010.2 hPa NNE 18 km/h 28 km/h 62% 0.00 mm 400.06 W/m2
14:29 31.0 °C 23.0 °C 1010.4 hPa NNE 20 km/h 24 km/h 61% 0.00 mm 390.37 W/m2
14:34 31.0 °C 23.0 °C 1010.1 hPa NNE 22 km/h 24 km/h 61% 0.00 mm 398.66 W/m2
14:39 31.0 °C 23.0 °C 1010.1 hPa NNE 22 km/h 28 km/h 61% 0.00 mm 414.40 W/m2
14:44 31.0 °C 23.0 °C 1010.2 hPa NNE 24 km/h 28 km/h 61% 0.00 mm 421.96 W/m2
14:49 32.0 °C 23.0 °C 1009.9 hPa NNE 20 km/h 28 km/h 61% 0.00 mm 423.35 W/m2
14:54 32.0 °C 23.0 °C 1009.8 hPa NNE 19 km/h 28 km/h 62% 0.00 mm 413.07 W/m2
14:59 32.0 °C 23.0 °C 1009.8 hPa NNE 29 km/h 32 km/h 62% 0.00 mm 403.68 W/m2
15:04 31.0 °C 23.0 °C 1010.2 hPa NNE 17 km/h 20 km/h 63% 0.00 mm 395.85 W/m2
15:09 31.0 °C 23.0 °C 1009.8 hPa NNE 18 km/h 24 km/h 63% 0.00 mm 405.37 W/m2
15:14 31.0 °C 23.0 °C 1010.1 hPa NNE 22 km/h 28 km/h 64% 0.00 mm 389.54 W/m2
15:19 31.0 °C 23.0 °C 1010.2 hPa North 22 km/h 24 km/h 64% 0.00 mm 400.99 W/m2
15:24 31.0 °C 23.0 °C 1010.2 hPa North 30 km/h 32 km/h 64% 0.00 mm 418.34 W/m2
15:29 31.0 °C 23.0 °C 1010.2 hPa North 24 km/h 32 km/h 64% 0.00 mm 407.23 W/m2
15:34 31.0 °C 23.0 °C 1010.2 hPa North 28 km/h 32 km/h 64% 0.00 mm 401.66 W/m2
15:39 31.0 °C 23.0 °C 1010.2 hPa North 25 km/h 28 km/h 65% 0.00 mm 323.87 W/m2
15:44 31.0 °C 23.0 °C 1010.1 hPa North 21 km/h 24 km/h 65% 0.00 mm 326.17 W/m2
15:49 31.0 °C 23.0 °C 1010.2 hPa North 24 km/h 28 km/h 65% 0.00 mm 312.00 W/m2
15:54 30.0 °C 23.0 °C 1010.1 hPa North 18 km/h 24 km/h 65% 0.00 mm 301.73 W/m2
15:59 30.0 °C 23.0 °C 1009.9 hPa North 23 km/h 28 km/h 65% 0.00 mm 295.89 W/m2
16:04 30.0 °C 23.0 °C 1010.2 hPa North 21 km/h 24 km/h 65% 0.00 mm 291.85 W/m2
16:09 31.0 °C 23.0 °C 1010.2 hPa North 21 km/h 28 km/h 64% 0.00 mm 279.51 W/m2
16:14 30.0 °C 23.0 °C 1010.2 hPa North 24 km/h 28 km/h 64% 0.00 mm 267.50 W/m2
16:19 30.0 °C 23.0 °C 1010.4 hPa North 19 km/h 24 km/h 64% 0.00 mm 255.09 W/m2
16:24 30.0 °C 23.0 °C 1010.5 hPa North 20 km/h 24 km/h 65% 0.00 mm 242.05 W/m2
16:29 30.0 °C 23.0 °C 1010.5 hPa North 29 km/h 32 km/h 65% 0.00 mm 218.90 W/m2
16:34 30.0 °C 23.0 °C 1010.5 hPa North 20 km/h 24 km/h 65% 0.00 mm 218.51 W/m2
16:39 30.0 °C 23.0 °C 1010.5 hPa NNE 21 km/h 24 km/h 66% 0.00 mm 210.14 W/m2
16:44 30.0 °C 23.0 °C 1010.5 hPa North 20 km/h 24 km/h 66% 0.00 mm 155.19 W/m2
16:49 30.0 °C 23.0 °C 1010.5 hPa North 19 km/h 24 km/h 65% 0.00 mm 85.39 W/m2
16:54 30.0 °C 23.0 °C 1010.5 hPa North 20 km/h 24 km/h 66% 0.00 mm 59.19 W/m2
16:59 30.0 °C 23.0 °C 1010.9 hPa NNE 15 km/h 16 km/h 67% 0.00 mm 37.11 W/m2
17:04 30.0 °C 23.0 °C 1010.9 hPa North 23 km/h 28 km/h 67% 0.00 mm 34.12 W/m2
17:09 30.0 °C 23.0 °C 1010.9 hPa NNE 19 km/h 28 km/h 67% 0.00 mm 31.53 W/m2
17:14 30.0 °C 23.0 °C 1010.9 hPa NNE 15 km/h 28 km/h 67% 0.00 mm 24.56 W/m2
17:19 29.0 °C 23.0 °C 1010.9 hPa NNE 27 km/h 32 km/h 67% 0.00 mm 19.90 W/m2
17:24 29.0 °C 23.0 °C 1011.1 hPa NNE 27 km/h 36 km/h 67% 0.00 mm 16.05 W/m2
17:29 29.0 °C 23.0 °C 1010.9 hPa NE 15 km/h 28 km/h 68% 0.00 mm 11.12 W/m2
17:34 29.0 °C 22.0 °C 1011.2 hPa NE 22 km/h 28 km/h 67% 0.00 mm 7.76 W/m2
17:39 29.0 °C 22.0 °C 1011.2 hPa ENE 17 km/h 28 km/h 68% 0.00 mm 4.89 W/m2
17:44 29.0 °C 22.0 °C 1011.5 hPa NE 13 km/h 20 km/h 69% 0.00 mm 2.20 W/m2
17:49 29.0 °C 22.0 °C 1011.2 hPa NNE 13 km/h 20 km/h 69% 0.00 mm 0.00 W/m2
17:54 29.0 °C 22.0 °C 1011.5 hPa NE 13 km/h 16 km/h 69% 0.00 mm 0.00 W/m2
17:59 28.0 °C 22.0 °C 1011.5 hPa NNE 15 km/h 20 km/h 69% 0.00 mm 0.00 W/m2
18:04 28.0 °C 22.0 °C 1011.6 hPa NE 15 km/h 20 km/h 69% 0.00 mm 0.00 W/m2
18:09 28.0 °C 22.0 °C 1011.5 hPa NE 14 km/h 20 km/h 69% 0.00 mm 0.00 W/m2
18:14 28.0 °C 22.0 °C 1011.2 hPa NE 11 km/h 16 km/h 69% 0.00 mm 0.00 W/m2
18:19 28.0 °C 22.0 °C 1011.6 hPa NE 9 km/h 12 km/h 70% 0.00 mm 0.00 W/m2
18:24 28.0 °C 22.0 °C 1011.6 hPa NE 15 km/h 20 km/h 70% 0.00 mm 0.00 W/m2
18:29 28.0 °C 22.0 °C 1011.6 hPa NNE 9 km/h 20 km/h 70% 0.00 mm 0.00 W/m2
18:34 28.0 °C 22.0 °C 1011.6 hPa NE 8 km/h 12 km/h 70% 0.00 mm 0.00 W/m2
18:39 28.0 °C 22.0 °C 1011.9 hPa NNE 8 km/h 8 km/h 70% 0.00 mm 0.00 W/m2
18:44 28.0 °C 22.0 °C 1011.9 hPa North 8 km/h 12 km/h 71% 0.00 mm 0.00 W/m2
18:49 28.0 °C 22.0 °C 1011.9 hPa NNE 9 km/h 12 km/h 71% 0.00 mm 0.00 W/m2
18:54 28.0 °C 22.0 °C 1011.9 hPa NNE 9 km/h 12 km/h 71% 0.00 mm 0.00 W/m2
18:59 28.0 °C 22.0 °C 1011.9 hPa NNE 10 km/h 16 km/h 72% 0.00 mm 0.00 W/m2
19:04 28.0 °C 22.0 °C 1011.9 hPa NNE 10 km/h 16 km/h 72% 0.00 mm 0.00 W/m2
19:09 28.0 °C 22.0 °C 1012.2 hPa NNE 6 km/h 12 km/h 73% 0.00 mm 0.00 W/m2
19:14 27.0 °C 22.0 °C 1012.3 hPa NNE 10 km/h 12 km/h 73% 0.00 mm 0.00 W/m2
19:19 27.0 °C 22.0 °C 1012.3 hPa North 8 km/h 8 km/h 73% 0.00 mm 0.00 W/m2
19:24 27.0 °C 22.0 °C 1012.5 hPa North 10 km/h 16 km/h 74% 0.00 mm 0.00 W/m2
19:29 27.0 °C 22.0 °C 1012.5 hPa North 9 km/h 12 km/h 74% 0.00 mm 0.00 W/m2
19:34 27.0 °C 22.0 °C 1012.6 hPa North 8 km/h 12 km/h 74% 0.00 mm 0.00 W/m2
19:39 27.0 °C 22.0 °C 1012.6 hPa NNE 8 km/h 12 km/h 74% 0.00 mm 0.00 W/m2
19:44 27.0 °C 22.0 °C 1012.6 hPa NNE 14 km/h 16 km/h 75% 0.00 mm 0.00 W/m2
19:49 27.0 °C 22.0 °C 1012.9 hPa NNE 4 km/h 8 km/h 75% 0.00 mm 0.00 W/m2
19:54 27.0 °C 23.0 °C 1013.0 hPa NNE 11 km/h 16 km/h 75% 0.00 mm 0.00 W/m2
19:59 27.0 °C 22.0 °C 1013.0 hPa NNE 10 km/h 16 km/h 75% 0.00 mm 0.00 W/m2
20:04 27.0 °C 23.0 °C 1013.0 hPa NNE 10 km/h 16 km/h 76% 0.00 mm 0.00 W/m2
20:09 27.0 °C 23.0 °C 1013.0 hPa NNE 13 km/h 16 km/h 77% 0.00 mm 0.00 W/m2
20:14 27.0 °C 23.0 °C 1013.0 hPa North 14 km/h 16 km/h 77% 0.00 mm 0.00 W/m2
20:19 27.0 °C 23.0 °C 1013.0 hPa North 11 km/h 12 km/h 77% 0.00 mm 0.00 W/m2
20:24 27.0 °C 23.0 °C 1013.0 hPa North 11 km/h 12 km/h 77% 0.00 mm 0.00 W/m2
20:29 27.0 °C 23.0 °C 1013.2 hPa North 13 km/h 16 km/h 78% 0.00 mm 0.00 W/m2
20:34 27.0 °C 23.0 °C 1013.0 hPa North 14 km/h 20 km/h 79% 0.00 mm 0.00 W/m2
20:39 27.0 °C 23.0 °C 1013.0 hPa North 15 km/h 20 km/h 80% 0.00 mm 0.00 W/m2
20:44 27.0 °C 23.0 °C 1013.0 hPa NNE 14 km/h 20 km/h 81% 0.00 mm 0.00 W/m2
20:49 26.0 °C 23.0 °C 1013.0 hPa North 15 km/h 16 km/h 81% 0.00 mm 0.00 W/m2
20:54 26.0 °C 23.0 °C 1013.2 hPa North 12 km/h 16 km/h 81% 0.00 mm 0.00 W/m2
20:59 26.0 °C 23.0 °C 1013.3 hPa North 12 km/h 16 km/h 81% 0.00 mm 0.00 W/m2
21:04 26.0 °C 23.0 °C 1013.3 hPa NNE 13 km/h 16 km/h 82% 0.00 mm 0.00 W/m2
21:09 26.0 °C 23.0 °C 1013.3 hPa NNE 10 km/h 16 km/h 82% 0.00 mm 0.00 W/m2
21:14 26.0 °C 23.0 °C 1013.3 hPa NNE 6 km/h 12 km/h 82% 0.00 mm 0.00 W/m2
21:19 26.0 °C 23.0 °C 1013.3 hPa NE 8 km/h 8 km/h 82% 0.00 mm 0.00 W/m2
21:24 26.0 °C 23.0 °C 1013.5 hPa NNE 13 km/h 16 km/h 83% 0.00 mm 0.00 W/m2
21:29 26.0 °C 23.0 °C 1013.3 hPa NE 8 km/h 8 km/h 83% 0.00 mm 0.00 W/m2
21:34 26.0 °C 23.0 °C 1013.6 hPa NNE 9 km/h 12 km/h 83% 0.00 mm 0.00 W/m2
21:39 26.0 °C 23.0 °C 1013.7 hPa NE 7 km/h 8 km/h 83% 0.00 mm 0.00 W/m2
21:44 26.0 °C 23.0 °C 1013.7 hPa ENE 5 km/h 8 km/h 83% 0.00 mm 0.00 W/m2
21:49 26.0 °C 23.0 °C 1013.7 hPa NNE 8 km/h 12 km/h 83% 0.00 mm 0.00 W/m2
21:54 26.0 °C 23.0 °C 1013.7 hPa SE 2 km/h 4 km/h 83% 0.00 mm 0.00 W/m2
21:59 26.0 °C 23.0 °C 1013.7 hPa NE 6 km/h 8 km/h 82% 0.00 mm 0.00 W/m2
22:04 26.0 °C 23.0 °C 1013.7 hPa NNE 10 km/h 12 km/h 82% 0.00 mm 0.00 W/m2
22:09 26.0 °C 23.0 °C 1013.5 hPa NNE 10 km/h 12 km/h 83% 0.00 mm 0.00 W/m2
22:14 26.0 °C 23.0 °C 1013.6 hPa NE 5 km/h 8 km/h 83% 0.00 mm 0.00 W/m2
22:19 26.0 °C 23.0 °C 1013.4 hPa NE 6 km/h 8 km/h 83% 0.00 mm 0.00 W/m2
22:24 26.0 °C 23.0 °C 1013.3 hPa North 8 km/h 8 km/h 83% 0.00 mm 0.00 W/m2
22:29 26.0 °C 23.0 °C 1013.3 hPa NNE 7 km/h 8 km/h 83% 0.00 mm 0.00 W/m2
22:34 26.0 °C 23.0 °C 1013.3 hPa NNE 9 km/h 12 km/h 84% 0.00 mm 0.00 W/m2
22:39 26.0 °C 23.0 °C 1013.3 hPa NNE 8 km/h 12 km/h 84% 0.00 mm 0.00 W/m2
22:44 26.0 °C 23.0 °C 1013.3 hPa NNE 6 km/h 8 km/h 84% 0.00 mm 0.00 W/m2
22:49 26.0 °C 23.0 °C 1013.3 hPa NNE 7 km/h 12 km/h 84% 0.00 mm 0.00 W/m2
22:54 26.0 °C 23.0 °C 1013.3 hPa NE 8 km/h 12 km/h 84% 0.00 mm 0.00 W/m2
22:59 26.0 °C 23.0 °C 1013.3 hPa NE 6 km/h 8 km/h 84% 0.00 mm 0.00 W/m2
23:04 26.0 °C 23.0 °C 1013.3 hPa NE 6 km/h 8 km/h 84% 0.00 mm 0.00 W/m2
23:09 26.0 °C 23.0 °C 1013.3 hPa ENE 5 km/h 8 km/h 84% 0.00 mm 0.00 W/m2
23:14 26.0 °C 23.0 °C 1013.0 hPa ENE 6 km/h 8 km/h 84% 0.00 mm 0.00 W/m2
23:19 26.0 °C 23.0 °C 1013.0 hPa NE 1 km/h 4 km/h 84% 0.00 mm 0.00 W/m2
23:24 26.0 °C 23.0 °C 1013.0 hPa NNE 5 km/h 8 km/h 83% 0.00 mm 0.00 W/m2
23:29 26.0 °C 23.0 °C 1013.0 hPa NE 5 km/h 8 km/h 83% 0.00 mm 0.00 W/m2
23:34 26.0 °C 23.0 °C 1013.0 hPa NE 5 km/h 8 km/h 83% 0.00 mm 0.00 W/m2
23:39 26.0 °C 23.0 °C 1013.0 hPa NNE 6 km/h 8 km/h 83% 0.00 mm 0.00 W/m2
23:44 26.0 °C 23.0 °C 1013.0 hPa NE 8 km/h 8 km/h 84% 0.00 mm 0.00 W/m2
23:49 26.0 °C 23.0 °C 1013.3 hPa NNE 6 km/h 8 km/h 84% 0.00 mm 0.00 W/m2
23:54 26.0 °C 23.0 °C 1013.3 hPa NNE 6 km/h 8 km/h 84% 0.00 mm 0.00 W/m2
23:59 26.0 °C 23.0 °C 1013.2 hPa NNE 9 km/h 12 km/h 84% 0.00 mm 0.00 W/m2
PIMOHWEATHER Philippines
Compliments of Weather Underground - 2 mb